Location: Adouz
(31.0059°N, 9.0227°W)
Time: 12:34:09
(UTC+00:00)

Daily predictions for brighter satellites

Satellite Brightness Start Highest point End
(mag) Time Altitude Azimuth Time Altitude Azimuth Time Altitude Azimuth
SL-08 RB Rocket 4.2 19:50:28 10° S 19:55:05 67° W 19:59:43 10° NNW
NOSS 2 (A) 4.5 19:54:46 10° NNW 19:57:05 42° ENE 19:59:21 10° SE
Cosmos 1689 Rocket 2.0 19:58:11 10° NNE 20:00:52 51° E 20:03:32 10° S
Cosmos 1634 Rocket 4.2 19:54:48 10° N 20:00:56 54° E 20:06:57 10° SSE
Cosmos 44 Rocket 4.2 19:56:33 10° SW 20:01:36 60° WNW 20:06:47 10° NNE
USA 32 4.4 19:56:49 10° N 20:01:50 45° E 20:06:49 10° SSE
CSL-04 Rocket 3.7 19:59:48 10° SSE 20:05:15 76° ENE 20:10:38 10° N
MetOp-A 4.2 20:01:26 10° SSE 20:06:44 69° ENE 20:12:03 10° N
USA 186 1.9 20:06:24 10° SSE 20:09:29 49° ENE 20:12:23 10° N
ERS-2 3.4 20:07:36 10° NE 20:10:22 20° E 20:13:08 10° SSE
SEDSat Delta rocket 2.8 20:08:15 10° W 20:12:26 83° N 20:16:28 10° E
Ariane Rocket 4.2 20:11:04 10° ESE 20:15:08 25° ENE 20:19:11 10° NNE
Centaur D AC-28 3.0 20:18:32 10° WSW 20:22:53 61° SSE 20:38:57 10° E
Cosmos 1437 2.8 20:22:56 10° N 20:25:33 39° E 20:27:15 18° SE
Cosmos 1869 4.2 20:26:56 10° NNW 20:30:38 48° W 20:34:20 10° SSW
Helios 1A Rocket 2.9 20:27:57 10° SSE 20:31:56 68° ENE 20:35:58 10° N
Cosmos 1076 Rocket 4.0 20:29:45 10° SSE 20:33:46 38° E 20:37:48 10° NNE
Atlas Centaur 2 1.3 20:31:34 10° W 20:36:14 80° S 20:39:03 18° E
OAO 2 Rocket 3.3 20:31:08 10° WNW 20:36:15 85° SSW 20:39:45 20° ESE
OBJECT-B 1.0 20:34:07 10° S 20:37:17 67° W 20:40:28 10° NNW
Cosmos 1437 Rocket 3.6 20:34:33 10° NNW 20:38:21 52° W 20:42:11 10° S
ATLAS 2AS CENTAUR R/B 4.4 20:31:15 10° SW 20:38:39 43° NW 20:46:03 10° NNE
Cosmos 1697 Rocket 2.7 20:37:06 10° NNW 20:42:45 70° ENE 20:47:02 18° SSE
SJ-6B 2.9 20:40:47 10° S 20:44:29 71° W 20:48:11 10° NNW
SAR-Lupe-4 4.2 20:41:30 10° N 20:45:01 58° WNW 20:48:32 10° SSW
FUSE 4.4 20:41:50 10° WSW 20:46:50 43° S 20:49:32 24° ESE
CENTAUR R/B 4.4 20:41:27 10° NW 20:49:22 41° WSW 20:57:28 10° S
Cosmos 2082 Rocket 3.1 20:45:09 10° SW 20:50:35 52° WNW 20:56:06 10° N
Cosmos 2279 Rocket 3.9 20:44:41 10° N 20:50:54 88° E 20:57:06 10° S
Resurs 1-3 3.6 20:48:41 21° SSE 20:51:34 67° ENE 20:55:56 10° N
ATLAS 3B R/B 3.8 20:46:25 10° N 20:52:45 32° NE 20:56:42 20° E
Cosmos 1633 2.4 20:50:04 13° S 20:53:09 80° E 20:56:46 10° N
Cosmos 1842 Rocket 3.5 20:52:24 10° N 20:56:53 73° E 20:59:30 24° SSE
USA 267 4.3 20:55:24 10° ENE 21:06:55 - S 20:59:02 22° ESE
Cosmos 158 Rocket 3.8 20:57:21 10° S 21:02:21 70° ESE 21:07:33 10° NNE
Cosmos 2278 4.3 20:57:18 10° N 21:02:35 39° ENE 21:04:37 29° ESE
Cosmos 1606 2.5 21:06:13 10° N 21:10:00 80° E 21:11:00 48° SSE
ATLAS 2A CENTAUR R/B 4.1 20:49:25 10° W 21:11:46 66° S 21:14:33 33° ESE
Nadezhda 4 Rocket 3.9 21:05:43 10° S 21:11:51 88° W 21:18:04 10° N
Landsat 7 3.9 21:10:55 39° SE 21:12:20 55° ENE 21:16:59 10° N
Meteor 2-8 Rocket 4.5 21:06:44 10° N 21:12:48 61° E 21:15:34 32° SSE
IGS 5A 3.4 21:12:15 47° SE 21:13:14 65° ENE 21:17:21 10° N
SPOT 3 Rocket 3.8 21:14:07 38° SE 21:15:43 52° ENE 21:20:48 10° N
Cosmos 1680 Rocket 3.9 21:17:27 39° ESE 21:17:37 39° E 21:22:30 10° NNE
MetOp-B 4.3 21:21:30 42° ESE 21:22:50 53° ENE 21:28:02 10° N
ERBS 2.8 21:24:09 10° NW 21:26:51 55° WNW 21:26:51 55° WNW
CZ-2C R/B 3.5 21:25:03 10° NNE 21:29:33 78° E 21:30:18 60° S
Hubble Space Telescope 1.6 21:25:54 10° W 21:29:14 38° SW 21:29:14 38° SW
Cosmos 2221 3.8 21:26:50 10° NNW 21:30:49 37° W 21:33:18 20° SSW
Cosmos 1980 Rocket 2.1 21:25:26 10° NNW 21:31:05 88° WSW 21:32:51 46° SSE
Cosmos 2369 4.0 21:25:59 10° NNW 21:31:32 61° WSW 21:34:00 33° S
Cosmos 1428 Rocket 4.4 21:31:48 43° SSE 21:33:44 64° E 21:39:46 10° NNE
OAO 3 Copernicus 4.4 21:29:37 10° WNW 21:34:38 67° NNE 21:35:47 50° ENE
Resurs 01 Rocket 1.9 21:35:57 49° SSW 21:36:56 65° W 21:41:21 10° NNW
Cosmos 2151 3.5 21:36:54 36° SW 21:38:22 56° W 21:42:33 10° N
Cosmos 1933 4.1 21:37:24 10° N 21:40:22 42° NNE 21:40:22 42° NNE
Cosmos 2322 Rocket 3.8 21:37:40 10° NNE 21:41:46 20° ENE 21:41:46 20° ENE
Cosmos 304 Rocket 4.4 21:38:21 10° N 21:42:24 41° NE 21:42:24 41° NE
Meteor 2-15 4.3 21:37:12 10° N 21:43:17 85° E 21:44:55 51° SSE
Meteor 2-3 Rocket 3.9 21:46:17 31° SSW 21:49:04 69° W 21:54:45 10° N
Cosmos 2292 Rocket 4.4 21:54:29 60° E 21:54:36 60° E 22:01:34 10° NNE
SEDSat Delta rocket 4.1 21:54:24 10° W 21:56:48 34° W 21:56:48 34° W
Meteor 2-15 Rocket 4.3 21:55:23 10° N 22:01:28 87° W 22:02:17 69° S
Aurora 2 Rocket 4.4 21:54:00 10° WSW 22:02:06 55° SSE 22:03:46 50° SE
ARIANE 5 R/B 3.6 22:04:24 40° NNE 22:04:24 40° NNE 22:07:27 10° N
Cosmos 1782 4.5 22:03:36 10° N 22:05:38 28° N 22:05:38 28° N
SL-16 R/B 2.7 22:05:05 10° N 22:09:55 47° NE 22:09:55 47° NE
Cosmos 371 Rocket 4.1 22:07:05 10° NNW 22:11:31 43° W 22:11:31 43° W
SPOT 1/Viking Rocket 4.0 22:11:56 54° WSW 22:12:09 54° W 22:17:15 10° NNW
Cosmos 1271 Rocket 4.4 22:09:43 10° NNW 22:12:03 33° NNW 22:12:03 33° NNW
Cosmos 1809 Rocket 4.3 22:14:19 84° SSW 22:14:33 89° W 22:20:43 10° N
H-2A R/B 4.1 22:15:38 10° W 22:15:43 10° W 22:15:43 10° W
Atlas Centaur 2 3.9 22:20:52 10° W 22:21:39 15° W 22:21:39 15° W
Terra 3.2 22:26:49 33° NNE 22:26:49 33° NNE 22:29:34 10° N
SPOT 5 4.2 22:30:02 31° NNW 22:30:02 31° NNW 22:32:21 10° NNW
ERS-1 Rocket 4.0 22:40:35 44° NNW 22:40:35 44° NNW 22:44:03 10° NNW
ATLAS 3B R/B 3.4 22:36:41 10° NW 22:43:33 46° WSW 22:43:58 46° WSW
USA 267 3.4 22:37:13 10° NE 22:43:44 70° NW 22:46:07 41° WSW
Cosmos 2360 Rocket 3.4 22:48:23 10° N 22:51:53 35° NNE 22:51:53 35° NNE
Cosmos 2333 Rocket 4.0 22:59:51 10° N 23:02:38 22° NNE 23:02:38 22° NNE
Cosmos 2322 Rocket 3.8 23:20:40 10° NW 23:23:35 28° NW 23:23:35 28° NW
Cosmos 2219 Rocket 4.1 23:42:15 10° N 23:44:40 25° N 23:44:40 25° N
COSMOS 2455 4.5 23:52:15 30° NW 23:52:15 30° NW 23:56:19 10° N
